This demonstration page uses our WeatherBlox Daily Observations layout. Learn more.

Left ArrowRight Arrow

34.16533, -84.80231

Hourly Observations for March 22, 2017

Temp ( °F °C ) Dew Point ( °F °C ) Humidity (%) Winds ( mph kmh ) Pressure ( in mb ) Visibility ( mi km ) Precip ( " mm )
12:23 am 00:23 Partly Cloudy with Mist and Fog 58 14.4 57 13.9 97 97 Calm 30.03 1017 3 4 0.00 0.00
12:37 am 00:37 Partly Cloudy with Mist and Fog 58 14.4 57 13.9 97 97 Calm 30.03 1017 4 6 0.00 0.00
12:47 am 00:47 Partly Cloudy with Mist and Fog 57 14 57 14 100 100 Calm 30.03 1017 2 2 0.00 0.00
12:53 am 00:53 Mostly Cloudy with Mist and Fog 57 13.9 56 13.3 96 96 Calm 30.03 1017 1 2 0.00 0.00
1:16 am 01:16 Partly Cloudy with Mist and Fog 57 13.9 56 13.3 96 96 Calm 30.03 1017 3 5 0.00 0.00
1:53 am 01:53 Clear with Mist and Fog 57 13.9 56 13.3 96 96 Calm 30.03 1017 3 4 0.00 0.00
2:04 am 02:04 Mostly Clear with Mist and Fog 56 13.3 55 12.8 97 97 Calm 30.06 1018 3 5 0.00 0.00
2:35 am 02:35 Mostly Cloudy with Mist and Fog 56 13.3 55 12.8 97 97 Calm 30.06 1018 3 4 0.00 0.00
2:50 am 02:50 Mostly Cloudy with Mist and Fog 55 13 55 13 100 100 Calm 30.06 1018 1 2 0.00 0.00
2:53 am 02:53 Mostly Cloudy with Mist and Fog 55 12.8 55 12.8 100 100 Calm 30.03 1017 1 1 0.00 0.00
3:19 am 03:19 Mostly Cloudy with Fog 54 12.2 54 12.2 100 100 Calm 30.06 1018 0 0 0.00 0.00
3:26 am 03:26 Mostly Cloudy with Fog 54 12.2 54 12.2 100 100 Calm 30.06 1018 1 1 0.00 0.00
3:53 am 03:53 Mostly Cloudy with Mist and Fog 54 12.2 54 12.2 100 100 Calm 30.03 1017 1 2 0.00 0.00
4:00 am 04:00 Mostly Cloudy with Mist and Fog 55 12.8 54 12.2 96 96 Calm 30.06 1018 2 2 0.00 0.00
4:06 am 04:06 Mostly Cloudy with Mist and Fog 55 12.8 54 12.2 96 96 Calm 30.06 1018 3 4 0.00 0.00
4:15 am 04:15 Partly Cloudy with Mist and Fog 55 12.8 54 12.2 96 96 Calm 30.06 1018 3 4 0.00 0.00
4:25 am 04:25 Mostly Clear with Mist and Fog 55 12.8 54 12.2 96 96 Calm 30.06 1018 5 8 0.00 0.00
4:53 am 04:53 Clear 55 12.8 54 12.2 96 96 Calm 30.03 1017 8 13 0.00 0.00
5:53 am 05:53 Clear 54 12.2 53 11.7 97 97 Calm 30.04 1017 7 11 0.00 0.00
6:53 am 06:53 Clear 53 11.7 51 10.6 93 93 Calm 30.06 1018 9 14 0.00 0.00
7:53 am 07:53 Sunny 51 10.6 49 9.4 92 92 Calm 30.08 1019 10 16 0.00 0.00
8:53 am 08:53 Sunny 54 12.2 48 8.9 80 80 NNW 6 9 30.10 1019 10 16 0.00 0.00
9:53 am 09:53 Sunny 54 12.2 46 7.8 75 75 N 9 15 30.15 1021 10 16 0.00 0.00
10:53 am 10:53 Sunny 55 12.8 46 7.8 72 72 VRB 6 9 30.16 1021 10 16 0.00 0.00
11:53 am 11:53 Sunny 57 13.9 45 7.2 64 64 NNW 6 9 30.19 1022 10 16 0.00 0.00
12:53 pm 12:53 Sunny 58 14.4 44 6.7 60 60 VRB 7 11 30.20 1023 10 16 0.00 0.00
1:53 pm 13:53 Sunny 58 14.4 42 5.6 56 56 N 12 19 30.19 1023 10 16 0.00 0.00
2:53 pm 14:53 Sunny 62 16.7 42 5.6 48 48 N 9 15 30.17 1022 10 16 0.00 0.00
3:53 pm 15:53 Sunny 62 16.7 34 1.1 35 35 VRB 7 11 30.16 1021 10 16 0.00 0.00
4:53 pm 16:53 Sunny 61 16.1 30 -1.1 31 31 N 9 15 30.17 1022 10 16 0.00 0.00
5:53 pm 17:53 Sunny 62 16.7 24 -4.4 23 23 VRB 6 9 30.17 1022 10 16 0.00 0.00
6:53 pm 18:53 Sunny 61 16.1 21 -6.1 21 21 VRB 6 9 30.18 1022 10 16 0.00 0.00
7:53 pm 19:53 Clear 58 14.4 22 -5.6 25 25 Calm 30.20 1023 10 16 0.00 0.00
8:53 pm 20:53 Clear 54 12.2 25 -3.9 33 33 Calm 30.21 1023 10 16 0.00 0.00
9:53 pm 21:53 Clear 52 11.1 25 -3.9 35 35 VRB 3 6 30.24 1024 10 16 0.00 0.00
10:53 pm 22:53 Clear 49 9.4 27 -2.8 43 43 Calm 30.26 1025 10 16 0.00 0.00
11:53 pm 23:53 Clear 47 8.3 30 -1.1 52 52 Calm 30.27 1025 10 16 0.00 0.00

Powered by AerisWeather